Location: Augsburg
(48.3836°N, 10.8929°E)
Time: 15:38:19
(UTC+02:00)

ISS - Pass Details

Date: 20 May 2021
Orbit: 417 x 422 km, 51.6° (Epoch: 13 June)

Event Time Altitude Azimuth Distance (km) Brightness Sun altitude
Rises 01:19:05 0° 291° (WNW) 2,371 0.3 -21.6°
Reaches altitude 10° 01:21:11 10° 292° (WNW) 1,506 -0.7 -21.6°
Enters shadow 01:23:17 35° 292° (WNW) 697 -2.6 -21.6°
